STARLINK-4541 (53427 NORAD) Tracking and Keplerian Element Data

This shows tracking and keplerian element data for the satellite.

Feedback or suggestion? Click here.




ElementValue
Catalog53427
NameSTARLINK-4541
Epoch Orbit797
Epoch Day270.25001157
Epoch Year2022
RAAN11.5533
Inclination53.2186
Eccentricity0.0002288
Argument of Perigee53.4748
Mean Anonmoly224.031
Mean Motion15.49896331
Decay Rate0.00044256
L11 53427U 22097AR 22270.25001157 .00044256 00000+0 78295-3 0 9999
L22 53427 53.2186 11.5533 0002288 53.4748 224.0310 15.49896331 7971

Live tracking and technical data element details for STARLINK-4541 (NORAD 53427). STARLINK-4541 can be tracked NOW for your location showing map with azimuth and elevation plus other details from your city location.

Track the satellite on the map from your city or location and see movement details for azimuth, elevation, latitude, longitude, range, height, and movement on the map or in text.







IsCatalogInMostPopularTable: catalog: 53427, numindb: 3
Update: records affected: 1



GetName: 53427 STARLINK-4541

Hit Count: updated at: Wed, 28 Sep 2022 22:23:45 GMT